Home   Weather   Moroni   Past weeks

Flag for Comoros Past Weather in Moroni, Comoros — Yesterday and Last 2 Weeks

Now
79 °F

Partly sunny.


Feels Like: 82 °F
Forecast: 74 / 82 °F
Wind: No wind

Location: Hahaya International Airport

Current Time: Aug 19, 2017 at 8:38:52 am

Latest Report: Aug 19, 2017 at 8:00 am


Visibility: N/A

Pressure: 30.04 "Hg

Humidity: 84%

Dew Point: 73 °F

Location of MoroniLocation

Past Weather in Moroni — Graph

°F

Moroni Temperature Yesterday

Maximum temperature yesterday: 88 °F (at 12:00 pm)
Minimum temperature yesterday: 75 °F (at 10:00 pm)
Average temperature yesterday: 81 °F

High & Low Weather Summary for the Past Weeks

 TemperatureHumidityPressure
High88 °F (Aug 9, 1:00 pm)94% (Aug 14, 12:00 pm)30.18 "Hg (Aug 14, 12:00 pm)
Low66 °F (Aug 5, 6:00 am)29% (Aug 4, 1:00 pm)29.92 "Hg (Aug 17, 6:00 pm)
Average79 °F68%30.04 "Hg
* Reported Aug 4 7:00 am — Aug 19 7:00 am, Moroni. Weather by CustomWeather, © 2017

Note: Actual official high and low records may vary slightly from our data, if they occured in-between our weather recording intervals... More about our weather records

Advertising

Moroni Weather History for the Previous 24 Hours

Scroll right to see more
 ConditionsComfort  
Time TempWeatherWind HumidityBarometerVisibility
7:00 am
Sat, Aug 19
75 °FPartly sunny.2 mph89%30.01 "HgN/A
6:00 am75 °FPartly cloudy.6 mph89%30.04 "HgN/A
1:00 am75 °FPassing clouds.6 mph89%30.04 "HgN/A
12:00 am75 °FPassing clouds.7 mph89%30.07 "HgN/A
11:00 pm
Fri, Aug 18
75 °FLight rain. Passing clouds.7 mph94%30.07 "HgN/A
10:00 pm75 °FLight rain. Passing clouds.13 mph89%30.07 "HgN/A
9:00 pm77 °FPassing clouds.7 mph83%30.04 "HgN/A
8:00 pm77 °FPassing clouds.5 mph94%30.04 "HgN/A
7:00 pm79 °FPassing clouds.5 mph89%30.01 "HgN/A
6:00 pm81 °FPartly sunny.6 mph79%29.98 "HgN/A
5:00 pm81 °FPartly sunny.7 mph74%29.98 "HgN/A
4:00 pm81 °FPartly sunny.7 mph84%29.95 "HgN/A
3:00 pm81 °FPartly sunny.9 mph79%29.95 "HgN/A
2:00 pm82 °FPartly sunny.9 mph79%29.98 "HgN/A
1:00 pm86 °FPartly sunny.12 mph59%29.98 "HgN/A
12:00 pm88 °FScattered clouds.9 mph59%30.01 "HgN/A
11:00 am86 °FScattered clouds.9 mph59%30.01 "HgN/A
10:00 am84 °FScattered clouds.14 mph62%30.01 "HgN/A
9:00 am84 °FScattered clouds.13 mph58%30.01 "HgN/A
8:00 am81 °FPassing clouds.8 mph70%30.01 "HgN/A
Weather by CustomWeather, © 2017

See weather overviewHow to use our weather pages